Location: Balsareny
(41.8670°N, 1.8830°E)
Time: 20:49:03
(UTC+01:00)

N. Korean satellite - Pass Details

Date: 01 December 2021
Orbit: 447 x 490 km, 97.3° (Epoch: 28 January)

Event Time Altitude Azimuth Distance (km) Brightness Sun altitude
Rises 17:50:43 0° 188° (S) 2,541 10.7 -5.5°
Reaches altitude 10° 17:52:57 10° 199° (SSW) 1,659 10.0 -5.9°
Maximum altitude 17:56:08 31° 263° (W) 872 8.8 -6.5°
Drops below altitude 10° 17:59:19 10° 327° (NNW) 1,648 9.4 -7.0°
Sets 18:01:32 0° 338° (NNW) 2,521 10.2 -7.4°
